Location: Martz Observatory
(42.0083°N, 79.0667°W)
Time: 05:58:14
(UTC-05:00)

Meteor 1-23 Rocket - Visible Passes

Search period start: 28 November 2014 00:00
Search period end: 08 December 2014 00:00
Orbit: 837 x 889 km, 81.3° (Epoch: 28 November)

Date Brightness Start Highest point End Pass type
(mag) Time Alt. Az. Time Alt. Az. Time Alt. Az.
28 Nov 6.4 05:14:03 10° NNE 05:18:30 24° ENE 05:22:58 10° ESE visible
28 Nov 5.2 18:25:55 10° SSE 18:29:15 26° ESE 18:29:15 26° ESE visible
28 Nov 5.9 20:08:29 10° SW 20:11:37 28° WSW 20:11:37 28° WSW visible
29 Nov 6.4 05:05:48 10° NNE 05:10:15 23° ENE 05:14:42 10° ESE visible
29 Nov 4.5 06:48:18 10° NNW 06:53:40 47° W 06:59:04 10° SSW visible
29 Nov 5.0 18:17:41 10° SE 18:22:20 28° E 18:22:22 28° E visible
29 Nov 5.5 20:00:14 10° SW 20:04:44 36° W 20:04:44 36° W visible
30 Nov 6.4 04:57:34 10° NNE 05:02:00 23° ENE 05:06:26 10° ESE visible
30 Nov 4.5 06:40:03 10° NNW 06:45:26 48° W 06:50:51 10° SSW visible
30 Nov 5.0 18:09:28 10° SE 18:14:05 28° E 18:15:28 25° ENE visible
30 Nov 5.4 19:51:58 10° SW 19:57:05 37° WNW 19:57:50 36° NW visible
01 Dec 6.4 04:49:19 10° NNE 04:53:44 23° ENE 04:58:10 10° ESE visible
01 Dec 4.5 06:31:47 10° NNW 06:37:11 48° W 06:42:37 10° SSW visible
01 Dec 5.0 18:01:14 10° SE 18:05:51 28° E 18:08:31 19° NE visible
01 Dec 5.4 19:43:42 10° SW 19:48:50 38° WNW 19:50:53 28° NNW visible
02 Dec 6.4 04:41:05 10° NNE 04:45:29 23° ENE 04:49:55 10° ESE visible
02 Dec 4.5 06:23:32 10° NNW 06:28:56 49° W 06:34:23 10° SSW visible
02 Dec 5.0 17:53:00 10° SE 17:57:36 27° E 18:01:30 13° NE visible
02 Dec 5.4 19:35:26 10° SW 19:40:34 38° WNW 19:43:51 20° NNW visible
03 Dec 6.4 04:32:50 10° NNE 04:37:14 23° ENE 04:41:39 10° ESE visible
03 Dec 4.4 06:15:16 10° NNW 06:20:41 49° W 06:26:09 10° SSW visible
03 Dec 5.1 17:44:47 10° SE 17:49:21 27° E 17:53:56 10° NNE visible
03 Dec 5.4 19:27:11 10° SW 19:32:19 38° WNW 19:36:44 14° N visible
04 Dec 6.4 04:24:36 10° NNE 04:28:59 23° ENE 04:33:23 10° ESE visible
04 Dec 4.4 06:07:01 10° NNW 06:12:27 50° W 06:17:55 10° SSW visible
04 Dec 5.1 17:36:33 10° SE 17:41:06 27° E 17:45:40 10° NNE visible
04 Dec 5.4 19:18:55 10° SW 19:24:04 39° WNW 19:29:15 10° N visible
05 Dec 6.4 04:16:21 10° NNE 04:20:44 22° ENE 04:25:07 10° ESE visible
05 Dec 4.4 05:58:45 10° NNW 06:04:12 50° W 06:09:42 10° SSW visible
05 Dec 5.1 17:28:20 10° SE 17:32:51 27° E 17:37:24 10° NNE visible
05 Dec 5.4 19:10:39 10° SW 19:15:48 39° WNW 19:21:00 10° N visible
06 Dec 6.4 04:08:11 10° NNE 04:12:29 22° ENE 04:16:51 10° ESE visible
06 Dec 4.4 05:50:33 10° NNW 05:55:58 51° W 06:01:28 10° SSW visible
06 Dec 5.1 17:20:06 10° SE 17:24:37 26° E 17:29:08 10° NNE visible
06 Dec 5.4 19:02:23 10° SW 19:07:33 39° WNW 19:12:46 10° N visible
07 Dec 6.4 04:01:12 15° NNE 04:04:13 22° ENE 04:08:35 10° ESE visible
07 Dec 4.3 05:43:34 17° NNW 05:47:43 51° W 05:53:14 10° SSW visible
07 Dec 5.2 17:11:52 10° SE 17:16:22 26° E 17:20:52 10° NE visible
07 Dec 5.4 18:54:08 10° SW 18:59:18 40° WNW 19:04:31 10° N visible
